Portada
METAR-TAF:

METAR-TAF

Aeropuertos :

Tetuán, Marruecos

Aeropuerto Tétouan-Martil Sania Ramel

latitud: 35-35N, longitud: 005-20W, altitud: 10 m

Observación

El informe se hizo hace 26 minutos, a las 08:00 UTC
Viento 2 kt con dirección variable
Temperatura 21°C
Humedad 78%
Presión 1017 hPa
Visibilidad: 6000 m
Nubes dispersas a una altura de 1000 ft
Nubes dispersas a una altura de 6600 ft

METAR: GMTN 280800Z VRB02KT 6000 SCT010 SCT066 21/17 Q1017 NOSIG

Hora: 08:26 (08:26 UTC)


TAF: falta

Observaciones y pronósticos meteorológicos de más de 4000 aeropuertos (mensajes METAR y TAF).

Los puntos amarillos y rojos representan las estaciones disponibles.

Ponga el ratón en el punto deseado para ver el nombre de la estación.

Haga clic para ver las observaciones y los pronósticos meteorológicos.

Para cambiar el mapa : haga clic en los botones verdes con una cruz de color negro para hacer un zoom, en el botón verde con un guión para alejar o en las flechas verdes para mapas adyacentes.


METAR-TAF: